Home > Weather > Leiden > Past weeks

Flag for Netherlands Weather for the Past 2 Weeks in Leiden, Netherlands

Now
41 °F

Clear.


Feels Like: 35 °F
Forecast: 35 / 43 °F
Wind: 9 mph from East

Location: Rotterdam Zestienhoven Airport

Current Time: Feb 12, 2016 at 5:52:13 PM

Latest Report: Feb 12, 2016 at 4:55 PM


Visibility: N/A

Pressure: 29.42 "Hg

Humidity: 76%

Dew point: 34 °F

Location of LeidenLocation

Historic Weather in Leiden — Graph

°F

Leiden Temperature Yesterday

Maximum temperature yesterday: 46 °F (at 11:25 AM)
Minimum temperature yesterday: 32 °F (at 6:55 AM)
Average temperature yesterday: 40 °F

High & Low Weather Summary for the Past Weeks

 TemperatureHumidityPressure
High54 °F (Feb 1, 12:25 AM)100% (Jan 31, 3:25 PM)30.27 "Hg (Jan 31, 3:25 PM)
Low32 °F (Feb 11, 6:55 AM)57% (Jan 30, 9:55 PM)28.94 "Hg (Feb 9, 3:25 PM)
Average45 °F82%29.72 "Hg
* Reported Jan 28 4:25 PM — Feb 12 4:25 PM, Leiden, Weather by CustomWeather, © 2016

Note: Actual official high and low records may vary slightly from our data, if they occured in-between our weather recording intervals... More about our weather records

Advertising

Leiden Weather History for the Previous 24 Hours

 ConditionsComfort  
Time TempWeatherWind HumidityBarometerVisibility
4:25 PM
Fri, Feb 12
41 °FClear.10 mph81%29.42 "HgN/A
3:55 PM43 °FPassing clouds.9 mph76%29.42 "HgN/A
3:25 PM41 °FClear.8 mph81%29.42 "HgN/A
2:55 PM41 °FScattered clouds.8 mph81%29.42 "HgN/A
2:25 PM43 °FScattered clouds.6 mph76%29.45 "HgN/A
1:55 PM43 °FPartly sunny.8 mph81%29.45 "HgN/A
1:25 PM41 °FBroken clouds.8 mph81%29.47 "HgN/A
12:55 PM41 °FOvercast.8 mph81%29.47 "HgN/A
12:25 PM41 °FOvercast.10 mph87%29.47 "HgN/A
11:55 AM39 °FOvercast.8 mph93%29.50 "HgN/A
11:25 AM39 °FMostly cloudy.7 mph93%29.50 "Hg6 mi
10:55 AM39 °FCloudy.8 mph87%29.50 "Hg4 mi
10:25 AM39 °FLow clouds.9 mph87%29.50 "Hg4 mi
9:55 AM39 °FFog.7 mph93%29.50 "Hg3 mi
9:25 AM37 °FFog.8 mph100%29.50 "Hg3 mi
8:55 AM37 °FPartly sunny.7 mph93%29.53 "Hg4 mi
8:25 AM37 °FFog.8 mph100%29.53 "Hg3 mi
7:55 AM37 °FLight rain. Passing clouds.8 mph93%29.53 "Hg3 mi
7:25 AM37 °FFog.7 mph100%29.53 "Hg3 mi
6:55 AM37 °FFog.7 mph100%29.56 "Hg2 mi
6:25 AM36 °FFog.3 mph100%29.56 "Hg1 mi
5:55 AM36 °FFog.6 mph100%29.56 "Hg1 mi
5:25 AM36 °FFog.6 mph100%29.56 "Hg1 mi
4:55 AM36 °FFog.6 mph100%29.56 "Hg1 mi
4:25 AM36 °FFog.6 mph100%29.59 "Hg1 mi
3:55 AM36 °FFog.7 mph100%29.59 "Hg1 mi
3:25 AM36 °FFog.8 mph93%29.59 "Hg3 mi
2:55 AM34 °FFog.5 mph100%29.59 "Hg2 mi
2:25 AM34 °FFog.6 mph100%29.59 "Hg2 mi
1:55 AM34 °FFog.6 mph100%29.59 "Hg2 mi
1:25 AM34 °FFog.6 mph100%29.62 "Hg2 mi
12:55 AM36 °FFog.6 mph93%29.62 "Hg2 mi
12:25 AM36 °FFog.5 mph100%29.62 "Hg2 mi
11:55 PM
Thu, Feb 11
36 °FFog.6 mph100%29.62 "Hg2 mi
10:55 PM36 °FChilly.6 mph100%29.65 "Hg4 mi
10:25 PM37 °FClear.7 mph93%29.65 "Hg4 mi
9:55 PM39 °FChilly.6 mph87%29.65 "Hg6 mi
9:25 PM39 °FPassing clouds.6 mph93%29.65 "HgN/A
8:55 PM39 °FPassing clouds.6 mph87%29.65 "HgN/A
8:25 PM37 °FPassing clouds.2 mph87%29.65 "HgN/A
7:55 PM37 °FOvercast.1 mph93%29.65 "HgN/A
7:25 PM36 °FPassing clouds.3 mph93%29.65 "HgN/A
6:55 PM39 °FClear.2 mph87%29.65 "HgN/A
6:25 PM39 °FPassing clouds.3 mph81%29.65 "HgN/A
5:55 PM39 °FClear.5 mph87%29.65 "HgN/A
5:25 PM43 °FClear.6 mph76%29.65 "HgN/A
Weather by CustomWeather, © 2016

See weather overviewHow to use our weather pages